Appleton, MN

11:37 AM CDT on May 26, 2017 (GMT -0500)
Appleton Municipal

Weather History for KAQP - October, 2012

Change the Weather History Date:

Tuesday, October 16, 2012

  Actual Average Record
Temperature  
Mean Temperature 60 °F -  
Max Temperature 75 °F 55 °F 75 °F (2012)
Min Temperature 46 °F 34 °F 24 °F (2003)
Degree Days  
Heating Degree Days 4    
Growing Degree Days 10 (Base 50)    
Moisture  
Dew Point 41 °F    
Average Humidity 46    
Maximum Humidity 71    
Minimum Humidity 29    
Precipitation  
Precipitation 0.00 in - - ()
Sea Level Pressure  
Sea Level Pressure 29.46 in    
Wind  
Wind Speed 3 mph (SW)    
Max Wind Speed 9 mph    
Max Gust Speed -    
Visibility 10 miles    
Events      
Averages and records for this station are not official NWS values.
T = Trace of Precipitation, MM = Missing Value Source: NWS Daily Summary

Daily Weather History Graph

Daily Weather History Graph

Search for Another Location

Airport or City:

Trip Planner

Search our weather history database for the weather conditions in past years. The results will help you decide how hot, cold, wet, or windy it might be!

Date:

Astronomy

Oct. 16, 2012 Rise Set
Actual Time 7:41 AM CDT 6:36 PM CDT
Civil Twilight 7:12 AM CDT 7:05 PM CDT
Nautical Twilight 6:37 AM CDT 7:40 PM CDT
Astronomical Twilight 6:03 AM CDT 8:14 PM CDT
Moon 9:12 AM CDT (10/16) 7:14 PM CDT (10/16)
Length of Visible Light 11h 53m
Length of Day
10h 54m
New Moon, 2% of the Moon is Illuminated
Oct 16
New Moon
Oct 21
First Quarter
Oct 29
Full
Nov 6
Last Quarter
Nov 13
New

Hourly Weather History & Observations

Time (CDT) Temp. Dew Point Humidity Pressure Visibility Wind Dir Wind Speed Gust Speed Precip Events Conditions
12:14 AM 60.8 °F 37.4 °F 42% 29.61 in 10.0 mi South 3.5 mph - N/A   Mostly Cloudy
12:33 AM 60.8 °F 37.4 °F 42% 29.61 in 10.0 mi South 4.6 mph - N/A   Clear
12:53 AM 59.0 °F 37.4 °F 45% 29.61 in 10.0 mi SSE 4.6 mph - N/A   Clear
1:13 AM 57.2 °F 37.4 °F 48% 29.62 in 10.0 mi Calm Calm - N/A   Clear
1:34 AM 55.4 °F 37.4 °F 51% 29.62 in 10.0 mi North 3.5 mph - N/A   Clear
1:53 AM 55.4 °F 37.4 °F 51% 29.62 in 10.0 mi ENE 3.5 mph - N/A   Clear
2:13 AM 53.6 °F 37.4 °F 54% 29.62 in 10.0 mi Calm Calm - N/A   Clear
2:33 AM 57.2 °F 39.2 °F 51% 29.61 in 10.0 mi Calm Calm - N/A   Clear
2:53 AM 57.2 °F 39.2 °F 51% 29.60 in 10.0 mi SSE 3.5 mph - N/A   Clear
3:14 AM 55.4 °F 39.2 °F 54% 29.59 in 10.0 mi SE 5.8 mph - N/A   Clear
3:33 AM 59.0 °F 39.2 °F 48% 29.58 in 10.0 mi South 4.6 mph - N/A   Clear
3:53 AM 59.0 °F 39.2 °F 48% 29.57 in 10.0 mi SSE 6.9 mph - N/A   Clear
4:14 AM 57.2 °F 39.2 °F 51% 29.57 in 10.0 mi Calm Calm - N/A   Clear
4:33 AM 57.2 °F 39.2 °F 51% 29.55 in 10.0 mi ESE 5.8 mph - N/A   Clear
5:34 AM 53.6 °F 39.2 °F 58% 29.55 in 10.0 mi SSE 3.5 mph - N/A   Scattered Clouds
5:53 AM 53.6 °F 39.2 °F 58% 29.54 in 10.0 mi ENE 3.5 mph - N/A   Scattered Clouds
6:13 AM 51.8 °F 39.2 °F 62% 29.54 in 10.0 mi Calm Calm - N/A   Clear
6:34 AM 51.8 °F 39.2 °F 62% 29.55 in 10.0 mi Calm Calm - N/A   Clear
7:13 AM 51.8 °F 37.4 °F 58% 29.54 in 10.0 mi Calm Calm - N/A   Clear
7:33 AM 48.2 °F 37.4 °F 66% 29.54 in 10.0 mi Calm Calm - N/A   Clear
7:53 AM 46.4 °F 37.4 °F 71% 29.54 in 10.0 mi Calm Calm - N/A   Clear
8:13 AM 48.2 °F 37.4 °F 66% 29.54 in 10.0 mi Calm Calm - N/A   Clear
8:33 AM 50.0 °F 39.2 °F 66% 29.54 in 10.0 mi Calm Calm - N/A   Clear
8:54 AM 51.8 °F 39.2 °F 62% 29.53 in 10.0 mi Calm Calm - N/A   Clear
9:13 AM 53.6 °F 39.2 °F 58% 29.52 in 10.0 mi Calm Calm - N/A   Clear
9:34 AM 55.4 °F 39.2 °F 54% 29.53 in 10.0 mi WNW 3.5 mph - N/A   Clear
9:53 AM 57.2 °F 41.0 °F 55% 29.53 in 10.0 mi West 4.6 mph - N/A   Clear
10:13 AM 60.8 °F 42.8 °F 52% 29.53 in 7.0 mi West 4.6 mph - N/A   Clear
10:33 AM 64.4 °F 42.8 °F 45% 29.53 in 10.0 mi WNW 5.8 mph - N/A   Clear
10:53 AM 66.2 °F 44.6 °F 46% 29.52 in 10.0 mi NW 4.6 mph - N/A   Clear
11:13 AM 68.0 °F 44.6 °F 43% 29.51 in 10.0 mi Calm Calm - N/A   Clear
11:33 AM 69.8 °F 42.8 °F 38% 29.50 in 10.0 mi NW 4.6 mph - N/A   Clear
11:54 AM 69.8 °F 42.8 °F 38% 29.50 in 10.0 mi WNW 4.6 mph - N/A   Clear
12:14 PM 71.6 °F 42.8 °F 35% 29.49 in 10.0 mi NW 6.9 mph - N/A   Clear
12:33 PM 71.6 °F 42.8 °F 35% 29.48 in 10.0 mi NNW 6.9 mph - N/A   Clear
12:53 PM 71.6 °F 42.8 °F 35% 29.47 in 10.0 mi NW 5.8 mph - N/A   Clear
1:13 PM 73.4 °F 42.8 °F 33% 29.47 in 10.0 mi NW 8.1 mph - N/A   Clear
1:33 PM 73.4 °F 41.0 °F 31% 29.46 in 10.0 mi West 4.6 mph - N/A   Clear
1:53 PM 73.4 °F 41.0 °F 31% 29.44 in 10.0 mi West 4.6 mph - N/A   Clear
2:13 PM 75.2 °F 41.0 °F 29% 29.43 in 10.0 mi Calm Calm - N/A   Clear
2:33 PM 73.4 °F 41.0 °F 31% 29.42 in 10.0 mi WSW 4.6 mph - N/A   Clear
2:53 PM 75.2 °F 41.0 °F 29% 29.41 in 10.0 mi West 5.8 mph - N/A   Clear
3:14 PM 75.2 °F 41.0 °F 29% 29.42 in 10.0 mi NW 6.9 mph - N/A   Clear
3:34 PM 75.2 °F 41.0 °F 29% 29.42 in 10.0 mi West 6.9 mph - N/A   Clear
3:53 PM 73.4 °F 41.0 °F 31% 29.40 in 10.0 mi WSW 5.8 mph - N/A   Clear
4:13 PM 73.4 °F 41.0 °F 31% 29.38 in 10.0 mi Calm Calm - N/A   Clear
4:33 PM 75.2 °F 41.0 °F 29% 29.37 in 10.0 mi Calm Calm - N/A   Clear
4:53 PM 75.2 °F 41.0 °F 29% 29.37 in 10.0 mi SSE 3.5 mph - N/A   Clear
5:13 PM 73.4 °F 41.0 °F 31% 29.37 in 10.0 mi Calm Calm - N/A   Clear
5:33 PM 71.6 °F 42.8 °F 35% 29.37 in 10.0 mi Calm Calm - N/A   Mostly Cloudy
5:54 PM 71.6 °F 42.8 °F 35% 29.37 in 10.0 mi Calm Calm - N/A   Overcast
6:14 PM 69.8 °F 42.8 °F 38% 29.37 in 10.0 mi Calm Calm - N/A   Overcast
6:33 PM 69.8 °F 42.8 °F 38% 29.37 in 10.0 mi Calm Calm - N/A   Overcast
6:53 PM 69.8 °F 42.8 °F 38% 29.36 in 10.0 mi Calm Calm - N/A   Overcast
7:13 PM 68.0 °F 42.8 °F 40% 29.36 in 10.0 mi Calm Calm - N/A   Overcast
7:33 PM 68.0 °F 42.8 °F 40% 29.36 in 10.0 mi SSE 3.5 mph - N/A   Overcast
7:53 PM 66.2 °F 44.6 °F 46% 29.37 in 10.0 mi Calm Calm - N/A   Overcast
8:13 PM 66.2 °F 42.8 °F 43% 29.36 in 10.0 mi SSW 5.8 mph - N/A   Mostly Cloudy
8:33 PM 66.2 °F 42.8 °F 43% 29.34 in 10.0 mi Calm Calm - N/A   Clear
8:54 PM 60.8 °F 42.8 °F 52% 29.33 in 10.0 mi SE 4.6 mph - N/A   Clear
9:13 PM 60.8 °F 42.8 °F 52% 29.32 in 10.0 mi ESE 6.9 mph - N/A   Clear
9:34 PM 60.8 °F 42.8 °F 52% 29.32 in 10.0 mi SE 3.5 mph - N/A   Clear
9:53 PM 57.2 °F 42.8 °F 59% 29.33 in 10.0 mi SSW 5.8 mph - N/A   Clear
10:13 PM 60.8 °F 42.8 °F 52% 29.33 in 10.0 mi SW 9.2 mph - N/A   Clear
10:33 PM 59.0 °F 44.6 °F 59% 29.33 in 10.0 mi SW 4.6 mph - N/A   Clear
10:53 PM 60.8 °F 44.6 °F 55% 29.32 in 10.0 mi South 4.6 mph - N/A   Clear
11:13 PM 60.8 °F 42.8 °F 52% 29.31 in 10.0 mi SSE 6.9 mph - N/A   Clear
11:33 PM 59.0 °F 42.8 °F 55% 29.31 in 10.0 mi SSE 5.8 mph - N/A   Clear
11:53 PM 59.0 °F 42.8 °F 55% 29.29 in 10.0 mi SE 9.2 mph - N/A   Clear